Tracking 29892 objects as of 21-Nov-2024
HD Live streaming from Space Station
objects crossing your sky now

TITAN 3C TRANSTAGE DEB

Track TITAN 3C TRANSTAGE DEB now!


NORAD ID: 38703
Int'l Code: 1968-081AD
Perigee: 33,405.6 km
Apogee: 35,412.7 km
Inclination: 1.5 °
Period: 1,365.9 minutes
Semi major axis: 40780 km
RCS: 0.003 m2 (small)
Launch date: September 26, 1968
Source: United States (US)
Launch site: AIR FORCE EASTERN TEST RANGE (AFETR)

Note: This is SATELLITE DEBRIS
Your satellite tracking list
Your tracking list is empty




NASA's NSSDC Master Catalog

Two Line Element Set (TLE):
1 38703U 68081AD  24325.30955697 -.00000191  00000-0  00000+0 0  9995
2 38703   1.4635  86.0312 0246086  52.4731 309.2150  1.05421579 69986
Source of the keplerian elements: AFSPC